Location: Strada George Coșbuc
(47.6577°N, 23.5639°E)
Time: 22:20:17
(UTC+03:00)

ISS - Pass Details

Date: 18 September 2017
Orbit: 401 x 407 km, 51.6° (Epoch: 25 September)

Event Time Altitude Azimuth Distance (km) Brightness Sun altitude
Exits shadow 05:22:28 53° 288° (WNW) 506 -3.7 -17.9°
Maximum altitude 05:23:09 85° 208° (SSW) 414 -3.9 -17.7°
Drops below altitude 10° 05:26:26 10° 117° (ESE) 1,467 -0.5 -17.2°
Sets 05:28:31 0° 117° (ESE) 2,325 0.6 -16.9°
